Regional Weather Roundup
Issued by NWS Cleveland, OH

Home | Current Version | Previous Version | Graphics & Text | Print | Product List | Glossary On
Versions: 1 2 3 4 5 6 7 8 9 10 11 12 13 14 15 16 17 18 19 20 21 22 23 24 25 26 27 28 29 30 31 32 33 34 35 36 37 38 39 40 41 42 43 44 45 46 47 48 49 50
000
ASUS41 KCLE 291800
RWRCLE
OHIO REGIONAL WEATHER ROUNDUP
NATIONAL WEATHER SERVICE WILMINGTON, OH
200 PM EDT FRI JUL 29 2016

NOTE: "FAIR" INDICATES FEW OR NO CLOUDS BELOW 12,000 FEET WITH NO
SIGNIFICANT WEATHER AND/OR OBSTRUCTIONS TO VISIBILITY.

OHZ001>008-015>018-024>027-034-035-043-044-291900-
   NORTHWEST OHIO

CITY           SKY/WX    TMP DP  RH WIND       PRES   REMARKS
DEFIANCE       FAIR      85  66  53 NE6       29.92F
FINDLAY        FAIR      85  62  46 SW6       29.92F
TOLEDO EXPRESS PTSUNNY   85  68  56 NW7       29.92F
TOLEDO EXEC    FAIR      85  67  54 VRB5      29.94F
LIMA           PTSUNNY   80  70  71 N8        29.92F
$$

OHZ009>014-019>023-028>033-038-089-291900-
   NORTHEAST OHIO

CITY           SKY/WX    TMP DP  RH WIND       PRES   REMARKS
CLE-HOPKINS    PTSUNNY   83  66  56 N10       29.95S
CLE-LAKEFRONT  FAIR      82  72  71 N10       29.93R
CUY CO. ARPT   PTSUNNY   77  68  73 E12       29.95R
LORAIN-ELYRIA  FAIR      85  68  56 N9        29.94F
ASHTABULA      PTSUNNY   80  70  71 N8        29.95S
AKRON-CANTON   FAIR      83  63  50 SW7       29.95F
WOOSTER        NOT AVBL
MANSFIELD      PTSUNNY   87  64  46 VRB5      29.95F
YOUNGSTOWN     PTSUNNY   82  66  58 CALM      29.95F
$$

OHZ042-051>053-060>062-070>072-077>081-291900-
  SOUTHWEST OHIO

CITY           SKY/WX    TMP DP  RH WIND       PRES   REMARKS
CINC-COVINGTON PTSUNNY   84  70  62 W7        29.94F
CINC-LUNKEN    PTSUNNY   84  74  71 VRB5      29.92F HX  91
HAMILTON       FAIR      87  71  58 VRB6      29.92F HX  93
DAYTON         NOT AVBL
WRIGHT-PAT AFB NOT AVBL
DAYTON GENERAL FAIR      82  66  58 S13       29.93S
WILMINGTON     FAIR      81  72  74 S9        29.94F
$$

OHZ036-037-039>041-045>050-054>059-063>069-073>076-082>088-291900-
  CENTRAL AND SOUTHEAST OHIO

CITY           SKY/WX    TMP DP  RH WIND       PRES   REMARKS
COLUMBUS       FAIR      81  68  64 CALM      29.93F
OSU AIRPORT    FAIR      81  70  69 MISG      29.93F
BOLTON FIELD     N/A     79  72  78 SE5         N/A  THUNDER
RICKENBACK AFB PTSUNNY   81  71  71 S6        29.94F
NEWARK         FAIR      83  70  64 VRB6      29.95F
MARION         PTSUNNY   86  63  45 CALM      29.93F
LANCASTER      FAIR      82  70  66 CALM      29.95F
ZANESVILLE     FAIR      83  70  64 SW8       29.96F
NEW PHILLY     FAIR      87  66  49 VRB7      29.95F
$$



USA.gov is the U.S. government's official web portal to all federal, state and local government web resources and services.